WA7EBH-15 Weather Reports


time (UTC)temp
F
wind
direction
speed
knots
gust
knots
rain 1hr
in
rain 24hr
in
rain mn
in
humidity
%
barometer
mb
20220627210349 76 308 5.2 2.6 0.00 0.00 0.00 56 1014.3
20220627205751 76 335 5.2 4.3 0.00 0.00 0.00 57 1014.3
20220627205150 76 298 5.2 7.0 0.00 0.00 0.00 57 1014.4
20220627204253 76 325 6.1 5.2 0.00 0.00 0.00 58 1014.6
20220627203954 75 274 4.3 7.8 0.00 0.00 0.00 59 1014.6
20220627203656 76 350 5.2 5.2 0.00 0.00 0.00 59 1014.6
20220627203057 75 340 0.9 2.6 0.00 0.00 0.00 59 1014.7
20220627200702 75 281 5.2 3.5 0.00 0.00 0.00 60 1014.8
20220627200403 74 233 3.5 7.0 0.00 0.00 0.00 60 1014.8
20220627195805 75 257 5.2 7.0 0.00 0.00 0.00 62 1014.9
20220627195506 75 263 5.2 5.2 0.00 0.00 0.00 61 1014.9
20220627194605 75 330 7.0 6.1 0.00 0.00 0.00 61 1015.0
20220627191911 76 288 5.2 6.1 0.00 0.00 0.00 60 1015.0
20220627191612 76 307 7.0 6.1 0.00 0.00 0.00 60 1015.0
20220627190416 76 333 4.3 3.5 0.00 0.00 0.00 61 1015.0
20220627190117 76 321 5.2 6.1 0.00 0.00 0.00 59 1015.0
20220627185818 77 278 4.3 3.5 0.00 0.00 0.00 60 1015.0
20220627185519 76 333 3.5 4.3 0.00 0.00 0.00 58 1015.0
20220627185216 76 288 4.3 5.2 0.00 0.00 0.00 59 1015.0
20220627184618 76 295 0.9 2.6 0.00 0.00 0.00 59 1015.0
20220627184319 76 224 2.6 0.9 0.00 0.00 0.00 60 1015.0
20220627183422 75 255 0.0 0.9 0.00 0.00 0.00 60 1015.1
20220627182824 75 229 0.0 2.6 0.00 0.00 0.00 60 1015.1
20220627182525 75 24 0.0 0.0 0.00 0.00 0.00 59 1015.1
20220627182223 75 307 3.5 2.6 0.00 0.00 0.00 60 1015.2
20220627181625 74 246 2.6 1.7 0.00 0.00 0.00 61 1015.2
20220627180429 74 343 5.2 3.5 0.00 0.00 0.00 63 1015.3
20220627180130 74 319 4.3 3.5 0.00 0.00 0.00 63 1015.3
20220627175831 74 70 0.0 2.6 0.00 0.00 0.00 63 1015.3
20220627175230 74 325 6.1 4.3 0.00 0.00 0.00 64 1015.4
20220627174931 74 222 1.7 2.6 0.00 0.00 0.00 63 1015.4
20220627174034 73 318 1.7 3.5 0.00 0.00 0.00 64 1015.5
20220627173735 73 309 0.0 0.0 0.00 0.00 0.00 64 1015.5
20220627173436 73 281 3.5 0.9 0.00 0.00 0.00 65 1015.5
20220627173137 73 315 1.7 4.3 0.00 0.00 0.00 65 1015.5
20220627172838 73 357 3.5 2.6 0.00 0.00 0.00 64 1015.6
20220627172236 72 318 2.6 3.5 0.00 0.00 0.00 65 1015.4
20220627171938 72 270 0.0 0.9 0.00 0.00 0.00 65 1015.4
20220627171639 72 287 3.5 3.5 0.00 0.00 0.00 66 1015.5
20220627170442 72 298 1.7 1.7 0.00 0.00 0.00 67 1015.7
20220627170143 71 309 1.7 3.5 0.00 0.00 0.00 67 1015.7
20220627165844 71 288 4.3 3.5 0.00 0.00 0.00 67 1015.8
20220627165243 72 336 2.6 4.3 0.00 0.00 0.00 67 1015.8
20220627163748 71 277 4.3 3.5 0.00 0.00 0.00 64 1015.9
20220627163449 72 302 4.3 5.2 0.00 0.00 0.00 65 1016.0
20220627162851 72 271 4.3 4.3 0.00 0.00 0.00 65 1016.1
20220627162552 71 274 2.6 2.6 0.00 0.00 0.00 65 1016.1
20220627155857 72 302 5.2 3.5 0.00 0.00 0.00 62 1016.2
20220627154100 71 346 1.7 3.5 0.00 0.00 0.00 64 1016.2
20220627152606 71 246 1.7 1.7 0.00 0.00 0.00 65 1016.3
20220627151704 71 280 1.7 1.7 0.00 0.00 0.00 67 1016.4
20220627151107 71 329 0.9 0.9 0.00 0.00 0.00 67 1016.4
20220627150508 70 328 0.0 0.0 0.00 0.00 0.00 66 1016.4
20220627145611 70 328 0.0 0.0 0.00 0.00 0.00 66 1016.5
20220627144412 68 252 0.0 0.0 0.00 0.00 0.00 71 1016.5
20220627143814 68 89 0.0 0.0 0.00 0.00 0.00 77 1016.5
20220627142618 65 89 0.0 0.0 0.00 0.00 0.00 80 1016.5
20220627142316 65 108 0.0 0.0 0.00 0.00 0.00 81 1016.5
20220627141420 64 167 1.7 1.7 0.00 0.00 0.00 82 1016.4
20220627140821 62 205 1.7 1.7 0.00 0.00 0.00 81 1016.5
20220627140223 62 176 0.9 1.7 0.00 0.00 0.00 83 1016.5
20220627135322 60 148 2.6 2.6 0.00 0.00 0.00 86 1016.5
20220627133827 59 128 3.5 3.5 0.00 0.00 0.00 87 1016.5
20220627133528 59 134 1.7 1.7 0.00 0.00 0.00 86 1016.5
20220627132030 59 138 0.9 0.9 0.00 0.00 0.00 85 1016.5
20220627131731 59 105 2.6 1.7 0.00 0.00 0.00 85 1016.4
20220627131432 59 128 3.5 3.5 0.00 0.00 0.00 84 1016.5
20220627130834 59 118 3.5 3.5 0.00 0.00 0.00 83 1016.5
20220627130535 59 153 3.5 4.3 0.00 0.00 0.00 82 1016.5
20220627125937 59 138 3.5 2.6 0.00 0.00 0.00 82 1016.5
20220627125638 59 134 4.3 4.3 0.00 0.00 0.00 81 1016.6
20220627125335 60 181 3.5 3.5 0.00 0.00 0.00 81 1016.6
20220627124438 59 134 3.5 5.2 0.00 0.00 0.00 79 1016.5
20220627122943 58 148 4.3 4.3 0.00 0.00 0.00 81 1016.5
20220627122043 59 141 3.5 3.5 0.00 0.00 0.00 80 1016.5
20220627121744 60 145 3.5 6.1 0.00 0.00 0.00 79 1016.5
20220627115950 61 152 3.5 5.2 0.00 0.00 0.00 73 1016.5
20220627112657 62 122 2.6 4.3 0.00 0.00 0.00 75 1016.4
20220627112355 62 152 4.3 3.5 0.00 0.00 0.00 73 1016.4
20220627111458 62 115 5.2 4.3 0.00 0.00 0.00 71 1016.4
20220627110302 63 152 4.3 2.6 0.00 0.00 0.00 71 1016.5
20220627110003 63 160 3.5 2.6 0.00 0.00 0.00 70 1016.5
20220627105704 63 120 4.3 2.6 0.00 0.00 0.00 70 1016.5
20220627104804 63 103 3.5 2.6 0.00 0.00 0.00 71 1016.5
20220627104206 62 193 6.1 7.8 0.00 0.00 0.00 72 1016.5
20220627102711 63 129 3.5 7.8 0.00 0.00 0.00 71 1016.6
20220627102408 63 172 5.2 4.3 0.00 0.00 0.00 71 1016.6
20220627102110 63 152 4.3 6.1 0.00 0.00 0.00 72 1016.6
20220627101511 63 159 5.2 5.2 0.00 0.00 0.00 69 1016.6
20220627100913 64 122 4.3 4.3 0.00 0.00 0.00 70 1016.6
20220627100614 63 131 3.5 2.6 0.00 0.00 0.00 70 1016.6
20220627100315 64 129 4.3 3.5 0.00 0.00 0.00 70 1016.6
20220627095717 63 159 5.2 4.3 0.00 0.00 0.00 71 1016.5
20220627095415 63 128 4.3 4.3 0.00 0.00 0.00 71 1016.6
20220627094817 62 121 4.3 2.6 0.00 0.00 0.00 73 1016.5
20220627094518 61 149 5.2 3.5 0.00 0.00 0.00 73 1016.5
20220627094219 61 139 4.3 3.5 0.00 0.00 0.00 75 1016.5
20220627091524 60 143 3.5 3.5 0.00 0.00 0.00 80 1016.6
20220627090329 60 163 3.5 1.7 0.00 0.00 0.00 81 1016.6
20220627090029 59 169 4.3 4.3 0.00 0.00 0.00 80 1016.6
20220627085730 59 163 4.3 4.3 0.00 0.00 0.00 81 1016.6
20220627084830 59 173 3.5 3.5 0.00 0.00 0.00 82 1016.6
20220627084531 58 149 5.2 4.3 0.00 0.00 0.00 83 1016.5
20220627084232 58 138 4.3 6.1 0.00 0.00 0.00 84 1016.5
20220627083634 58 174 3.5 3.5 0.00 0.00 0.00 84 1016.5
20220627083335 58 139 3.5 4.3 0.00 0.00 0.00 84 1016.5
20220627082737 58 114 4.3 3.5 0.00 0.00 0.00 84 1016.5
20220627082136 58 117 4.3 4.3 0.00 0.00 0.00 83 1016.6
20220627081239 58 190 4.3 4.3 0.00 0.00 0.00 83 1016.5
20220627080940 58 163 4.3 4.3 0.00 0.00 0.00 83 1016.5
20220627075142 59 115 3.5 3.5 0.00 0.00 0.00 82 1016.5
20220627073647 62 143 3.5 3.5 0.00 0.00 0.00 77 1016.6
20220627073049 63 103 2.6 3.5 0.00 0.00 0.00 74 1016.5
20220627072750 64 100 2.6 1.7 0.00 0.00 0.00 73 1016.6
20220627071850 67 89 3.5 3.5 0.00 0.00 0.00 69 1016.6
20220627071252 67 132 5.2 3.5 0.00 0.00 0.00 68 1016.5
20220627070654 67 150 4.3 4.3 0.00 0.00 0.00 68 1016.6
20220627070355 68 110 4.3 1.7 0.00 0.00 0.00 68 1016.5
20220627070056 67 187 4.3 5.2 0.00 0.00 0.00 68 1016.6
20220627065454 68 94 2.6 5.2 0.00 0.00 0.00 67 1016.5
20220627064557 68 134 3.5 2.6 0.00 0.00 0.00 67 1016.6
20220627064258 68 127 4.3 6.1 0.00 0.00 0.00 67 1016.6
20220627063700 68 163 5.2 7.0 0.00 0.00 0.00 67 1016.6
20220627062501 68 134 4.3 3.5 0.00 0.00 0.00 67 1016.6
20220627062202 68 170 5.2 7.0 0.00 0.00 0.00 67 1016.6
20220627061305 68 141 5.2 4.3 0.00 0.00 0.00 67 1016.6
20220627060707 68 134 3.5 3.5 0.00 0.00 0.00 67 1016.6
20220627060408 68 152 5.2 3.5 0.00 0.00 0.00 67 1016.6
20220627060109 68 158 5.2 4.3 0.00 0.00 0.00 68 1016.7
20220627054910 69 142 4.3 4.3 0.00 0.00 0.00 67 1016.7
20220627054611 69 139 4.3 2.6 0.00 0.00 0.00 68 1016.7
20220627054013 68 127 5.2 4.3 0.00 0.00 0.00 68 1016.7
20220627052515 69 134 4.3 6.1 0.00 0.00 0.00 69 1016.8
20220627052215 68 125 5.2 7.0 0.00 0.00 0.00 69 1016.7
20220627051916 68 145 5.2 2.6 0.00 0.00 0.00 69 1016.8
20220627051618 68 136 5.2 3.5 0.00 0.00 0.00 69 1016.8
20220627050720 0 116 0.0 0.0 0.00 0.00 0.00
20220627045222 69 159 2.6 3.5 0.00 0.00 0.00 70 1016.7
20220627044624 70 163 2.6 1.7 0.00 0.00 0.00 68 1016.7
20220627044325 70 125 2.6 3.5 0.00 0.00 0.00 68 1016.7
20220627042228 72 103 2.6 2.6 0.00 0.00 0.00 65 1016.6
20220627041929 72 122 2.6 2.6 0.00 0.00 0.00 63 1016.5
20220627041630 72 163 2.6 4.3 0.00 0.00 0.00 63 1016.5
20220627041331 72 128 3.5 2.6 0.00 0.00 0.00 63 1016.5
20220627035836 73 132 2.6 0.9 0.00 0.00 0.00 62 1016.5
20220627035534 74 132 3.5 1.7 0.00 0.00 0.00 61 1016.6
20220627034637 75 127 2.6 3.5 0.00 0.00 0.00 61 1016.5
20220627033740 76 132 1.7 2.6 0.00 0.00 0.00 59 1016.5
20220627032541 78 276 0.0 0.0 0.00 0.00 0.00 57 1016.6
20220627032243 78 276 0.0 0.0 0.00 0.00 0.00 56 1016.6
20220627031943 79 276 0.0 0.0 0.00 0.00 0.00 55 1016.6
20220627031644 79 276 0.0 0.0 0.00 0.00 0.00 55 1016.6
20220627031345 79 276 0.0 0.0 0.00 0.00 0.00 54 1016.6
20220627031046 79 276 0.0 0.0 0.00 0.00 0.00 53 1016.6
20220627030747 79 276 0.0 0.0 0.00 0.00 0.00 53 1016.6
20220627030149 80 276 0.0 0.0 0.00 0.00 0.00 51 1016.6
20220627025850 79 276 0.0 0.0 0.00 0.00 0.00 51 1016.6
20220627024052 79 293 1.7 1.7 0.00 0.00 0.00 51 1016.7
20220627023454 80 278 2.6 1.7 0.00 0.00 0.00 50 1016.7
20220627023155 80 287 1.7 0.9 0.00 0.00 0.00 50 1016.7
20220627022856 80 271 2.6 1.7 0.00 0.00 0.00 48 1016.7
20220627022554 80 280 1.7 1.7 0.00 0.00 0.00 49 1016.7
20220627022255 80 297 2.6 0.9 0.00 0.00 0.00 49 1016.7
20220627021657 80 290 2.6 1.7 0.00 0.00 0.00 48 1016.8
20220627021358 81 294 2.6 2.6 0.00 0.00 0.00 46 1016.8
20220627021059 80 259 2.6 1.7 0.00 0.00 0.00 43 1016.8
20220627020202 80 276 2.6 2.6 0.00 0.00 0.00 43 1016.9
20220627015903 80 329 3.5 2.6 0.00 0.00 0.00 42 1016.9
20220627015600 80 291 2.6 1.7 0.00 0.00 0.00 42 1016.9
20220627015301 80 314 3.5 3.5 0.00 0.00 0.00 43 1016.9
20220627015003 80 322 1.7 1.7 0.00 0.00 0.00 44 1016.9
20220627014704 80 277 2.6 1.7 0.00 0.00 0.00 43 1017.0
20220627014405 80 273 2.6 2.6 0.00 0.00 0.00 44 1017.0
20220627014106 80 323 2.6 2.6 0.00 0.00 0.00 43 1017.0
20220627013209 80 339 3.5 2.6 0.00 0.00 0.00 43 1017.0
20220627012909 80 340 1.7 0.9 0.00 0.00 0.00 44 1017.0
20220627012607 80 322 2.6 3.5 0.00 0.00 0.00 44 1017.0
20220627012308 80 125 0.9 0.0 0.00 0.00 0.00 43 1017.1
20220627011710 80 321 2.6 3.5 0.00 0.00 0.00 45 1017.1
20220627010514 80 311 3.5 3.5 0.00 0.00 0.00 45 1017.2
20220627010215 80 312 5.2 4.3 0.00 0.00 0.00 46 1017.2
20220627005917 80 274 3.5 6.1 0.00 0.00 0.00 46 1017.2
20220627005616 79 257 3.5 4.3 0.00 0.00 0.00 48 1017.2
20220627005315 79 321 5.2 5.2 0.00 0.00 0.00 46 1017.3
20220627005016 80 311 3.5 3.5 0.00 0.00 0.00 47 1017.3
20220627004717 79 321 5.2 4.3 0.00 0.00 0.00 48 1017.4
20220627004418 79 359 1.7 2.6 0.00 0.00 0.00 48 1017.4
20220627003521 79 308 4.3 7.0 0.00 0.00 0.00 49 1017.4
20220627001125 79 332 5.2 6.1 0.00 0.00 0.00 48 1017.6
20220627000228 79 325 4.3 5.2 0.00 0.00 0.00 47 1017.7
20220626235929 79 359 4.3 2.6 0.00 0.00 0.00 48 1017.7
20220626235627 79 325 4.3 7.0 0.00 0.00 0.00 50 1017.7
20220626235029 79 308 2.6 4.3 0.00 0.00 0.00 52 1017.8
20220626234132 79 349 4.3 6.1 0.00 0.00 0.00 48 1017.8
20220626233833 79 319 6.1 7.0 0.00 0.00 0.00 47 1017.8
20220626233235 79 352 7.0 2.6 0.00 0.00 0.00 48 1017.9
20220626232936 79 291 5.2 3.5 0.00 0.00 0.00 48 1017.9
20220626225341 79 301 6.1 5.2 0.00 0.00 0.00 52 1018.3
20220626222647 79 315 5.2 5.2 0.00 0.00 0.00 50 1018.5
20220626222348 79 7 0.9 5.2 0.00 0.00 0.00 49 1018.5
20220626221451 79 319 4.3 9.6 0.00 0.00 0.00 49 1018.5
20220626220853 78 323 5.2 7.0 0.00 0.00 0.00 50 1018.6
20220626220554 79 291 7.0 4.3 0.00 0.00 0.00 50 1018.6
20220626220255 78 311 2.6 3.5 0.00 0.00 0.00 50 1018.7
20220626215355 78 10 3.5 3.5 0.00 0.00 0.00 49 1018.7
20220626213900 78 315 4.3 5.2 0.00 0.00 0.00 52 1018.8
20220626213601 78 301 4.3 4.3 0.00 0.00 0.00 51 1018.9
20220626213302 77 283 5.2 5.2 0.00 0.00 0.00 50 1018.9
20220626212700 78 349 3.5 2.6 0.00 0.00 0.00 51 1018.9
20220626212401 77 10 5.2 3.5 0.00 0.00 0.00 52 1018.9
20220626211803 77 32 3.5 3.5 0.00 0.00 0.00 52 1019.0